| time (UTC) | temp F | wind direction | speed MPH | gust MPH | rain 1hr in | rain 24hr in | rain mn in | humidity % | barometer mb |
| 20260502214022 | 75 | 34 | 9.0 | 15.0 | 0.00 | 0.48 | 0.00 | 43 | 1020.1 |
| 20260502213519 | 75 | 31 | 6.0 | 12.0 | 0.00 | 0.48 | 0.00 | 42 | 1020.2 |
| 20260502213018 | 75 | 335 | 5.0 | 11.0 | 0.00 | 0.48 | 0.00 | 46 | 1020.3 |
| 20260502212518 | 75 | 355 | 5.0 | 13.0 | 0.00 | 0.48 | 0.00 | 44 | 1020.3 |
| 20260502212018 | 75 | 43 | 6.0 | 14.0 | 0.00 | 0.48 | 0.00 | 44 | 1020.3 |
| 20260502211517 | 75 | 11 | 5.0 | 14.0 | 0.00 | 0.48 | 0.00 | 44 | 1020.4 |
| 20260502211017 | 75 | 27 | 5.0 | 12.0 | 0.00 | 0.48 | 0.00 | 45 | 1020.4 |
| 20260502210514 | 75 | 17 | 5.0 | 15.0 | 0.00 | 0.48 | 0.00 | 45 | 1020.5 |
| 20260502210014 | 75 | 78 | 7.0 | 15.0 | 0.00 | 0.90 | 0.00 | 45 | 1020.6 |
| 20260502205514 | 74 | 95 | 3.0 | 12.0 | 0.00 | 0.90 | 0.00 | 45 | 1020.5 |
| 20260502205013 | 75 | 29 | 6.0 | 16.0 | 0.00 | 0.90 | 0.00 | 45 | 1020.6 |
| 20260502204516 | 75 | 42 | 7.0 | 16.0 | 0.00 | 0.90 | 0.00 | 46 | 1020.7 |
| 20260502204012 | 75 | 33 | 4.0 | 11.0 | 0.00 | 0.90 | 0.00 | 47 | 1020.5 |
| 20260502203511 | 75 | 75 | 5.0 | 12.0 | 0.00 | 0.90 | 0.00 | 46 | 1020.5 |
| 20260502203010 | 74 | 80 | 5.0 | 13.0 | 0.00 | 0.90 | 0.00 | 47 | 1020.7 |
| 20260502202509 | 74 | 28 | 5.0 | 14.0 | 0.00 | 0.90 | 0.00 | 46 | 1020.6 |
| 20260502202013 | 74 | 355 | 6.0 | 14.0 | 0.00 | 0.90 | 0.00 | 45 | 1020.7 |
| 20260502201508 | 74 | 11 | 3.0 | 10.0 | 0.00 | 0.90 | 0.00 | 48 | 1020.8 |
| 20260502201011 | 74 | 52 | 2.0 | 14.0 | 0.00 | 0.90 | 0.00 | 49 | 1020.9 |
| 20260502200512 | 74 | 19 | 6.0 | 14.0 | 0.00 | 0.90 | 0.00 | 49 | 1021.0 |
| 20260502200006 | 74 | 79 | 1.0 | 14.0 | 0.00 | 1.03 | 0.00 | 50 | 1021.0 |
| 20260502195506 | 74 | 344 | 8.0 | 14.0 | 0.00 | 1.03 | 0.00 | 49 | 1021.0 |
| 20260502195005 | 74 | 360 | 3.0 | 10.0 | 0.00 | 1.03 | 0.00 | 49 | 1020.9 |
| 20260502194505 | 74 | 57 | 3.0 | 11.0 | 0.00 | 1.03 | 0.00 | 49 | 1021.2 |
| 20260502194004 | 74 | 67 | 5.0 | 11.0 | 0.00 | 1.03 | 0.00 | 47 | 1021.2 |
| 20260502193503 | 74 | 324 | 3.0 | 11.0 | 0.00 | 1.03 | 0.00 | 49 | 1021.3 |
| 20260502193003 | 74 | 69 | 4.0 | 11.0 | 0.00 | 1.03 | 0.00 | 49 | 1021.3 |
| 20260502192502 | 74 | 52 | 4.0 | 9.0 | 0.00 | 1.03 | 0.00 | 50 | 1021.4 |
| 20260502192000 | 73 | 348 | 1.0 | 13.0 | 0.00 | 1.03 | 0.00 | 52 | 1021.3 |
| 20260502191612 | 73 | 38 | 6.0 | 13.0 | 0.00 | 1.03 | 0.00 | 50 | 1021.4 |
| 20260502191059 | 73 | 355 | 4.0 | 14.0 | 0.00 | 1.03 | 0.00 | 51 | 1021.4 |
| 20260502190558 | 73 | 63 | 5.0 | 14.0 | 0.00 | 1.03 | 0.00 | 51 | 1021.5 |
| 20260502190058 | 73 | 309 | 6.0 | 15.0 | 0.00 | 1.03 | 0.00 | 51 | 1021.3 |
| 20260502185556 | 73 | 10 | 6.0 | 15.0 | 0.00 | 1.54 | 0.00 | 51 | 1021.3 |
| 20260502185056 | 72 | 46 | 5.0 | 12.0 | 0.00 | 1.54 | 0.00 | 52 | 1021.3 |
| 20260502184605 | 72 | 26 | 4.0 | 12.0 | 0.00 | 1.54 | 0.00 | 52 | 1021.4 |
| 20260502184056 | 72 | 325 | 5.0 | 13.0 | 0.00 | 1.54 | 0.00 | 54 | 1021.5 |
| 20260502183554 | 72 | 348 | 3.0 | 14.0 | 0.00 | 1.54 | 0.00 | 54 | 1021.5 |
| 20260502183053 | 72 | 17 | 6.0 | 13.0 | 0.00 | 1.54 | 0.00 | 55 | 1021.6 |
| 20260502182553 | 72 | 31 | 7.0 | 14.0 | 0.00 | 1.54 | 0.00 | 54 | 1022.0 |
| 20260502182052 | 72 | 55 | 5.0 | 14.0 | 0.00 | 1.54 | 0.00 | 54 | 1021.9 |
| 20260502181554 | 72 | 78 | 4.0 | 12.0 | 0.00 | 1.54 | 0.00 | 54 | 1022.1 |
| 20260502181052 | 72 | 46 | 4.0 | 15.0 | 0.00 | 1.54 | 0.00 | 54 | 1022.1 |
| 20260502180551 | 72 | 42 | 7.0 | 15.0 | 0.00 | 1.54 | 0.00 | 54 | 1022.1 |
| 20260502164033 | 69 | 342 | 5.0 | 12.0 | 0.00 | 2.12 | 0.00 | 63 | 1022.4 |
| 20260502163532 | 68 | 360 | 6.0 | 14.0 | 0.00 | 2.12 | 0.00 | 62 | 1022.4 |
| 20260502163040 | 68 | 355 | 4.0 | 12.0 | 0.00 | 2.12 | 0.00 | 63 | 1022.5 |
| 20260502162531 | 68 | 53 | 3.0 | 13.0 | 0.00 | 2.12 | 0.00 | 64 | 1022.5 |
| 20260502162031 | 67 | 342 | 5.0 | 13.0 | 0.00 | 2.12 | 0.00 | 64 | 1022.5 |
| 20260502161543 | 67 | 27 | 5.0 | 13.0 | 0.00 | 2.12 | 0.00 | 66 | 1022.5 |
| 20260502161035 | 67 | 71 | 6.0 | 13.0 | 0.00 | 2.12 | 0.00 | 65 | 1022.6 |
| 20260502160526 | 67 | 329 | 6.0 | 12.0 | 0.00 | 2.12 | 0.00 | 66 | 1022.5 |
| 20260502160136 | 67 | 16 | 5.0 | 13.0 | 0.00 | 2.12 | 0.00 | 68 | 1022.5 |
| 20260502152017 | 65 | 21 | 4.0 | 13.0 | 0.00 | 2.13 | 0.00 | 74 | 1022.2 |
| 20260502151516 | 64 | 28 | 4.0 | 14.0 | 0.00 | 2.13 | 0.00 | 74 | 1022.1 |
| 20260502151015 | 63 | 150 | 3.0 | 14.0 | 0.00 | 2.13 | 0.00 | 75 | 1022.2 |
| 20260502150514 | 63 | 38 | 5.0 | 10.0 | 0.00 | 2.13 | 0.00 | 75 | 1022.3 |
| 20260502130548 | 55 | 332 | 4.0 | 10.0 | 0.00 | 2.34 | 0.00 | 90 | 1020.9 |
| 20260502130106 | 55 | 21 | 3.0 | 10.0 | 0.00 | 2.34 | 0.00 | 90 | 1020.8 |
| 20260502123544 | 54 | 320 | 2.0 | 8.0 | 0.00 | 2.35 | 0.00 | 91 | 1020.6 |
| 20260502123112 | 54 | 341 | 3.0 | 8.0 | 0.00 | 2.35 | 0.00 | 91 | 1020.4 |
| 20260502122544 | 54 | 343 | 1.0 | 8.0 | 0.00 | 2.35 | 0.00 | 91 | 1020.4 |
| 20260502122043 | 53 | 327 | 2.0 | 6.0 | 0.00 | 2.35 | 0.00 | 92 | 1020.4 |
| 20260502121544 | 53 | 19 | 2.0 | 8.0 | 0.00 | 2.35 | 0.00 | 91 | 1020.3 |
| 20260502121042 | 53 | 324 | 2.0 | 8.0 | 0.00 | 2.35 | 0.00 | 91 | 1020.4 |
| 20260502120541 | 53 | 348 | 1.0 | 5.0 | 0.00 | 2.35 | 0.00 | 91 | 1020.3 |
| 20260502115540 | 53 | 58 | 1.0 | 6.0 | 0.00 | 2.36 | 0.00 | 91 | 1020.3 |
| 20260502115040 | 53 | 43 | 2.0 | 6.0 | 0.00 | 2.36 | 0.00 | 91 | 1020.1 |
| 20260502114542 | 53 | 17 | 2.0 | 5.0 | 0.00 | 2.36 | 0.00 | 91 | 1020.1 |
| 20260502114039 | 53 | 355 | 1.0 | 3.0 | 0.00 | 2.36 | 0.00 | 91 | 1020.0 |
| 20260502113540 | 53 | 32 | 1.0 | 8.0 | 0.00 | 2.36 | 0.00 | 91 | 1020.1 |
| 20260502113038 | 53 | 11 | 2.0 | 8.0 | 0.00 | 2.36 | 0.00 | 91 | 1020.0 |
| 20260502112538 | 53 | 5 | 2.0 | 8.0 | 0.00 | 2.36 | 0.00 | 91 | 1019.9 |
| 20260502112036 | 53 | 26 | 3.0 | 8.0 | 0.00 | 2.36 | 0.00 | 91 | 1019.9 |
| 20260502111536 | 53 | 355 | 2.0 | 9.0 | 0.00 | 2.36 | 0.00 | 91 | 1019.9 |
| 20260502111039 | 53 | 329 | 1.0 | 9.0 | 0.00 | 2.36 | 0.00 | 91 | 1019.7 |
| 20260502110534 | 53 | 334 | 3.0 | 8.0 | 0.00 | 2.36 | 0.00 | 91 | 1019.7 |
| 20260502110045 | 53 | 355 | 2.0 | 5.0 | 0.00 | 2.36 | 0.00 | 90 | 1019.7 |
| 20260502105533 | 54 | 24 | 1.0 | 4.0 | 0.00 | 2.45 | 0.00 | 90 | 1019.6 |
| 20260502105032 | 54 | 297 | 2.0 | 5.0 | 0.00 | 2.45 | 0.00 | 90 | 1019.6 |
| 20260502104531 | 54 | 331 | 2.0 | 8.0 | 0.00 | 2.45 | 0.00 | 90 | 1019.5 |
| 20260502104031 | 54 | 45 | 2.0 | 8.0 | 0.00 | 2.45 | 0.00 | 90 | 1019.4 |
| 20260502103530 | 54 | 38 | 1.0 | 8.0 | 0.00 | 2.45 | 0.00 | 90 | 1019.5 |
| 20260502103032 | 54 | 19 | 2.0 | 8.0 | 0.00 | 2.45 | 0.00 | 90 | 1019.2 |
| 20260502102529 | 54 | 327 | 2.0 | 8.0 | 0.00 | 2.45 | 0.00 | 90 | 1019.2 |
| 20260502102035 | 54 | 355 | 3.0 | 8.0 | 0.00 | 2.45 | 0.00 | 90 | 1019.2 |
| 20260502101527 | 54 | 42 | 2.0 | 6.0 | 0.00 | 2.45 | 0.00 | 90 | 1019.2 |
| 20260502101027 | 54 | 355 | 1.0 | 5.0 | 0.00 | 2.45 | 0.00 | 89 | 1019.1 |
| 20260502100525 | 54 | 5 | 2.0 | 6.0 | 0.00 | 2.45 | 0.00 | 89 | 1019.0 |
| 20260502100126 | 54 | 40 | 2.0 | 6.0 | 0.00 | 2.45 | 0.00 | 89 | 1018.9 |
| 20260502091520 | 55 | 53 | 1.0 | 4.0 | 0.00 | 2.87 | 0.00 | 88 | 1018.1 |
| 20260502091020 | 55 | 64 | 0.0 | 4.0 | 0.00 | 2.87 | 0.00 | 88 | 1018.0 |
| 20260502090518 | 55 | 45 | 1.0 | 4.0 | 0.00 | 2.87 | 0.00 | 87 | 1018.0 |
| 20260502071511 | 55 | 46 | 2.0 | 6.0 | 0.00 | 3.02 | 0.00 | 91 | 1017.9 |
| 20260502071011 | 55 | 59 | 1.0 | 8.0 | 0.00 | 3.02 | 0.00 | 91 | 1017.9 |
| 20260502070510 | 55 | 69 | 1.0 | 8.0 | 0.00 | 3.02 | 0.00 | 91 | 1017.7 |
| 20260502070010 | 55 | 34 | 2.0 | 6.0 | 0.00 | 3.05 | 0.00 | 91 | 1017.9 |
| 20260502065510 | 55 | 49 | 2.0 | 10.0 | 0.00 | 3.05 | 0.00 | 91 | 1017.9 |
| 20260502065012 | 55 | 35 | 3.0 | 11.0 | 0.00 | 3.05 | 0.00 | 91 | 1017.9 |
| 20260502064508 | 55 | 16 | 5.0 | 11.0 | 0.00 | 3.05 | 0.00 | 91 | 1017.9 |
| 20260502064007 | 55 | 48 | 3.0 | 9.0 | 0.00 | 3.05 | 0.00 | 91 | 1017.8 |
| 20260502063507 | 55 | 51 | 5.0 | 13.0 | 0.00 | 3.05 | 0.00 | 91 | 1017.7 |
| 20260502063007 | 55 | 37 | 4.0 | 13.0 | 0.00 | 3.05 | 0.00 | 92 | 1017.5 |
| 20260502062506 | 56 | 50 | 4.0 | 11.0 | 0.00 | 3.05 | 0.00 | 92 | 1017.6 |
| 20260502062006 | 56 | 30 | 3.0 | 12.0 | 0.00 | 3.05 | 0.00 | 92 | 1017.4 |
| 20260502061507 | 56 | 20 | 6.0 | 12.0 | 0.00 | 3.05 | 0.00 | 92 | 1017.5 |
| 20260502061004 | 56 | 5 | 3.0 | 10.0 | 0.00 | 3.05 | 0.00 | 92 | 1017.6 |
| 20260502060503 | 56 | 26 | 3.0 | 15.0 | 0.00 | 3.05 | 0.00 | 92 | 1017.4 |
| 20260502060003 | 56 | 49 | 2.0 | 15.0 | 0.00 | 3.21 | 0.00 | 92 | 1017.4 |
| 20260502055503 | 56 | 49 | 4.0 | 10.0 | 0.00 | 3.21 | 0.00 | 93 | 1017.4 |
| 20260502055002 | 56 | 30 | 4.0 | 9.0 | 0.00 | 3.21 | 0.00 | 93 | 1017.4 |
| 20260502054503 | 56 | 45 | 2.0 | 10.0 | 0.00 | 3.21 | 0.00 | 93 | 1017.5 |
| 20260502054001 | 56 | 25 | 5.0 | 13.0 | 0.00 | 3.21 | 0.00 | 93 | 1017.4 |
| 20260502053503 | 56 | 61 | 5.0 | 10.0 | 0.00 | 3.21 | 0.00 | 93 | 1017.3 |
| 20260502053100 | 56 | 64 | 3.0 | 11.0 | 0.00 | 3.21 | 0.00 | 94 | 1017.4 |
| 20260502052600 | 56 | 59 | 4.0 | 11.0 | 0.00 | 3.21 | 0.00 | 94 | 1017.5 |
| 20260502052059 | 56 | 43 | 4.0 | 10.0 | 0.00 | 3.21 | 0.00 | 94 | 1017.5 |
| 20260502051602 | 56 | 315 | 3.0 | 10.0 | 0.00 | 3.21 | 0.00 | 94 | 1017.3 |
| 20260502051100 | 56 | 62 | 3.0 | 12.0 | 0.00 | 3.21 | 0.00 | 94 | 1017.2 |
| 20260502050558 | 56 | 44 | 3.0 | 13.0 | 0.00 | 3.21 | 0.00 | 95 | 1017.3 |
| 20260502050100 | 56 | 27 | 3.0 | 13.0 | 0.00 | 3.21 | 0.00 | 95 | 1017.3 |
| 20260502045556 | 56 | 336 | 2.0 | 7.0 | 0.00 | 3.23 | 3.21 | 95 | 1017.3 |
| 20260502045056 | 56 | 39 | 2.0 | 10.0 | 0.00 | 3.23 | 3.21 | 95 | 1017.2 |
| 20260502044555 | 56 | 55 | 2.0 | 9.0 | 0.00 | 3.23 | 3.21 | 95 | 1017.3 |
| 20260502044055 | 56 | 17 | 2.0 | 8.0 | 0.00 | 3.23 | 3.21 | 95 | 1017.4 |
| 20260502043555 | 56 | 82 | 2.0 | 11.0 | 0.00 | 3.23 | 3.21 | 95 | 1017.4 |
| 20260502043105 | 56 | 360 | 3.0 | 11.0 | 0.00 | 3.23 | 3.21 | 95 | 1017.6 |
| 20260502042554 | 56 | 43 | 3.0 | 10.0 | 0.00 | 3.23 | 3.21 | 95 | 1017.5 |
| 20260502042054 | 56 | 46 | 4.0 | 12.0 | 0.00 | 3.23 | 3.21 | 95 | 1017.4 |
| 20260502041556 | 56 | 54 | 4.0 | 12.0 | 0.00 | 3.23 | 3.21 | 95 | 1017.3 |
| 20260502041054 | 56 | 63 | 5.0 | 12.0 | 0.00 | 3.23 | 3.21 | 95 | 1017.3 |
| 20260502040552 | 56 | 38 | 3.0 | 14.0 | 0.00 | 3.23 | 3.21 | 95 | 1017.3 |
| 20260502040101 | 56 | 48 | 4.0 | 14.0 | 0.01 | 3.23 | 3.21 | 95 | 1017.4 |
| 20260502035551 | 56 | 65 | 4.0 | 12.0 | 0.01 | 3.23 | 3.21 | 95 | 1017.4 |
| 20260502035050 | 56 | 349 | 4.0 | 14.0 | 0.01 | 3.23 | 3.21 | 95 | 1017.5 |
| 20260502034553 | 56 | 355 | 3.0 | 14.0 | 0.01 | 3.23 | 3.21 | 95 | 1017.4 |
| 20260502034049 | 56 | 295 | 5.0 | 14.0 | 0.01 | 3.23 | 3.21 | 95 | 1017.1 |
| 20260502033547 | 56 | 55 | 3.0 | 9.0 | 0.01 | 3.23 | 3.21 | 96 | 1017.0 |
| 20260502033048 | 56 | 19 | 3.0 | 10.0 | 0.01 | 3.23 | 3.21 | 96 | 1016.9 |
| 20260502032546 | 56 | 355 | 3.0 | 10.0 | 0.01 | 3.23 | 3.21 | 96 | 1016.9 |
| 20260502032046 | 56 | 27 | 3.0 | 9.0 | 0.01 | 3.23 | 3.21 | 96 | 1016.8 |
| 20260502031546 | 56 | 19 | 3.0 | 12.0 | 0.01 | 3.23 | 3.21 | 96 | 1016.9 |
| 20260502031045 | 56 | 355 | 5.0 | 14.0 | 0.02 | 3.23 | 3.21 | 96 | 1016.7 |
| 20260502030542 | 56 | 355 | 6.0 | 14.0 | 0.02 | 3.23 | 3.21 | 96 | 1016.2 |
| 20260502030042 | 56 | 17 | 4.0 | 14.0 | 0.02 | 3.22 | 3.20 | 96 | 1016.0 |
| 20260502025543 | 56 | 44 | 4.0 | 14.0 | 0.02 | 3.22 | 3.20 | 96 | 1015.7 |
| 20260502025041 | 56 | 344 | 4.0 | 13.0 | 0.03 | 3.22 | 3.20 | 96 | 1015.9 |
| 20260502024550 | 56 | 25 | 4.0 | 11.0 | 0.03 | 3.22 | 3.20 | 95 | 1015.5 |
| 20260502024039 | 56 | 29 | 4.0 | 14.0 | 0.03 | 3.22 | 3.20 | 95 | 1015.8 |
| 20260502023539 | 56 | 49 | 6.0 | 14.0 | 0.04 | 3.22 | 3.20 | 95 | 1015.8 |
| 20260502023037 | 57 | 360 | 4.0 | 16.0 | 0.04 | 3.22 | 3.20 | 95 | 1015.7 |
| 20260502022535 | 57 | 55 | 6.0 | 13.0 | 0.04 | 3.22 | 3.20 | 95 | 1015.4 |
| 20260502022038 | 57 | 355 | 6.0 | 13.0 | 0.04 | 3.22 | 3.20 | 96 | 1015.4 |
| 20260502021535 | 57 | 355 | 5.0 | 12.0 | 0.05 | 3.22 | 3.20 | 96 | 1015.6 |
| 20260502021033 | 57 | 13 | 4.0 | 12.0 | 0.05 | 3.21 | 3.19 | 96 | 1015.8 |
| 20260502020635 | 57 | 28 | 3.0 | 12.0 | 0.07 | 3.21 | 3.19 | 95 | 1015.6 |
| 20260502020030 | 58 | 33 | 4.0 | 10.0 | 0.08 | 3.20 | 3.18 | 96 | 1015.0 |
| 20260502015529 | 58 | 19 | 3.0 | 16.0 | 0.08 | 3.20 | 3.18 | 96 | 1015.2 |
| 20260502015028 | 58 | 360 | 7.0 | 17.0 | 0.07 | 3.19 | 3.17 | 96 | 1015.2 |
| 20260502014532 | 58 | 333 | 8.0 | 17.0 | 0.07 | 3.19 | 3.17 | 96 | 1015.2 |
| 20260502014026 | 58 | 346 | 5.0 | 12.0 | 0.08 | 3.19 | 3.17 | 96 | 1014.9 |
| 20260502013626 | 58 | 65 | 6.0 | 12.0 | 0.07 | 3.18 | 3.16 | 96 | 1014.7 |
| 20260502013025 | 58 | 355 | 4.0 | 9.0 | 0.08 | 3.18 | 3.16 | 96 | 1014.6 |
| 20260502012524 | 58 | 329 | 2.0 | 11.0 | 0.08 | 3.18 | 3.16 | 96 | 1014.5 |
| 20260502012026 | 58 | 342 | 3.0 | 11.0 | 0.08 | 3.17 | 3.15 | 96 | 1014.4 |
| 20260502011523 | 58 | 5 | 4.0 | 11.0 | 0.09 | 3.17 | 3.15 | 96 | 1014.2 |
| 20260502011024 | 58 | 24 | 5.0 | 11.0 | 0.09 | 3.16 | 3.14 | 96 | 1014.3 |
| 20260502010522 | 58 | 360 | 4.0 | 11.0 | 0.08 | 3.14 | 3.12 | 96 | 1014.5 |
| 20260502010023 | 58 | 342 | 3.0 | 13.0 | 0.08 | 3.12 | 3.10 | 96 | 1014.9 |
| 20260502005520 | 58 | 310 | 5.0 | 13.0 | 0.09 | 3.12 | 3.10 | 96 | 1014.9 |
| 20260502005019 | 58 | 339 | 4.0 | 10.0 | 0.10 | 3.12 | 3.10 | 96 | 1014.3 |
| 20260502004540 | 58 | 345 | 4.0 | 13.0 | 0.11 | 3.12 | 3.10 | 96 | 1013.9 |
| 20260502004016 | 58 | 20 | 6.0 | 13.0 | 0.10 | 3.11 | 3.09 | 96 | 1013.6 |
| 20260502003614 | 59 | 49 | 3.0 | 10.0 | 0.10 | 3.11 | 3.09 | 96 | 1013.1 |
| 20260502003014 | 59 | 23 | 3.0 | 10.0 | 0.10 | 3.10 | 3.08 | 96 | 1013.3 |
| 20260502002513 | 59 | 20 | 4.0 | 9.0 | 0.11 | 3.10 | 3.08 | 96 | 1013.5 |
| 20260502002015 | 59 | 25 | 3.0 | 7.0 | 0.10 | 3.09 | 3.07 | 96 | 1013.6 |
| 20260502001516 | 59 | 15 | 3.0 | 11.0 | 0.12 | 3.08 | 3.06 | 96 | 1013.6 |
| 20260502001012 | 59 | 327 | 3.0 | 9.0 | 0.12 | 3.07 | 3.05 | 96 | 1013.9 |
| 20260502000511 | 59 | 5 | 3.0 | 12.0 | 0.15 | 3.06 | 3.04 | 96 | 1013.2 |
| 20260502000010 | 59 | 63 | 5.0 | 12.0 | 0.15 | 3.04 | 3.02 | 96 | 1013.3 |
| 20260501235509 | 59 | 343 | 4.0 | 11.0 | 0.15 | 3.03 | 3.01 | 96 | 1014.1 |
| 20260501235009 | 59 | 338 | 3.0 | 11.0 | 0.14 | 3.02 | 3.00 | 96 | 1014.4 |
| 20260501234508 | 59 | 40 | 2.0 | 11.0 | 0.13 | 3.01 | 2.99 | 96 | 1014.0 |
| 20260501234011 | 59 | 300 | 4.0 | 11.0 | 0.13 | 3.01 | 2.99 | 96 | 1013.3 |
| 20260501233508 | 59 | 59 | 4.0 | 16.0 | 0.13 | 3.01 | 2.99 | 96 | 1011.9 |
| 20260501233007 | 59 | 59 | 5.0 | 16.0 | 0.12 | 3.00 | 2.98 | 96 | 1012.4 |
| 20260501232508 | 59 | 36 | 3.0 | 10.0 | 0.11 | 2.99 | 2.97 | 96 | 1012.6 |
| 20260501232009 | 59 | 30 | 2.0 | 13.0 | 0.10 | 2.98 | 2.96 | 96 | 1012.6 |
| 20260501231514 | 59 | 51 | 6.0 | 13.0 | 0.08 | 2.96 | 2.94 | 96 | 1012.7 |
| 20260501231005 | 60 | 348 | 5.0 | 13.0 | 0.06 | 2.94 | 2.92 | 96 | 1012.8 |
| 20260501230508 | 60 | 16 | 4.0 | 12.0 | 0.03 | 2.91 | 2.89 | 96 | 1013.2 |
| 20260501230003 | 60 | 19 | 2.0 | 7.0 | 0.02 | 2.89 | 2.87 | 96 | 1013.0 |
| 20260501225503 | 60 | 53 | 3.0 | 8.0 | 0.01 | 2.88 | 2.86 | 96 | 1012.9 |
| 20260501225002 | 60 | 96 | 3.0 | 13.0 | 0.01 | 2.88 | 2.86 | 96 | 1012.4 |
| 20260501224502 | 60 | 98 | 4.0 | 13.0 | 0.01 | 2.88 | 2.86 | 96 | 1012.2 |
| 20260501224002 | 60 | 34 | 3.0 | 13.0 | 0.02 | 2.88 | 2.86 | 96 | 1012.1 |
| 20260501223501 | 60 | 69 | 5.0 | 13.0 | 0.03 | 2.88 | 2.86 | 96 | 1012.1 |
| 20260501223106 | 60 | 74 | 3.0 | 13.0 | 0.04 | 2.88 | 2.86 | 97 | 1012.3 |
| 20260501222600 | 60 | 340 | 5.0 | 12.0 | 0.06 | 2.88 | 2.86 | 96 | 1011.9 |
| 20260501222101 | 61 | 15 | 7.0 | 12.0 | 0.08 | 2.88 | 2.86 | 96 | 1011.8 |
| 20260501221600 | 61 | 10 | 3.0 | 11.0 | 0.09 | 2.88 | 2.86 | 97 | 1011.9 |
| 20260501221058 | 61 | 41 | 4.0 | 12.0 | 0.11 | 2.88 | 2.86 | 96 | 1012.2 |
| 20260501220557 | 61 | 35 | 5.0 | 14.0 | 0.12 | 2.88 | 2.86 | 96 | 1012.3 |
| 20260501215556 | 61 | 74 | 5.0 | 13.0 | 0.13 | 2.87 | 2.85 | 97 | 1012.6 |
| 20260501215057 | 61 | 28 | 4.0 | 11.0 | 0.14 | 2.87 | 2.85 | 97 | 1012.4 |
| 20260501214556 | 61 | 24 | 4.0 | 11.0 | 0.15 | 2.87 | 2.85 | 97 | 1012.4 |